• In Russia
  • List of Countries
  • For 7 days
  • Water Temperature
  • Satellite Maps
  • Weather Map
  • Weather Widgets
  • user-avatar
    Login

    Hourly Weather Mayrhofen

    Today, 24 November, Friday

    Time Temperature Precipitation Wind Pressure Humidity
    00:00 -1°C° 0 mm 1 mps 616 mmHg 73%
    01:00 -3°C° 0 mm 2 mps 616 mmHg 73%
    02:00 -4°C° 0 mm 2 mps 616 mmHg 74%
    03:00 -4°C° 0 mm 2 mps 616 mmHg 74%
    04:00 -4°C° 0 mm 2 mps 615 mmHg 75%
    05:00 -4°C° 0 mm 2 mps 615 mmHg 76%
    06:00 -4°C° 0 mm 2 mps 615 mmHg 76%
    07:00 -4°C° 0 mm 2 mps 615 mmHg 77%
    08:00 -3°C° 0 mm 2 mps 616 mmHg 76%
    09:00 -1°C° 0 mm 2 mps 616 mmHg 76%
    10:00 +2°C° 0 mm 2 mps 617 mmHg 75%
    11:00 +3°C° 0 mm 2 mps 617 mmHg 76%
    12:00 +4°C° 0 mm 2 mps 617 mmHg 77%
    13:00 +5°C° 0 mm 2 mps 617 mmHg 79%
    14:00 +3°C° 0 mm 2 mps 616 mmHg 80%
    15:00 +2°C° 0 mm 2 mps 616 mmHg 81%
    16:00 +1°C° 0 mm 2 mps 615 mmHg 82%
    17:00 -1°C° 0 mm 2 mps 615 mmHg 83%
    18:00 -1°C° 0 mm 2 mps 615 mmHg 84%
    19:00 -2°C° 0 mm 2 mps 615 mmHg 84%
    20:00 -2°C° 0 mm 2 mps 615 mmHg 85%
    21:00 -2°C° 0 mm 2 mps 615 mmHg 87%
    22:00 -2°C° 0 mm 2 mps 615 mmHg 88%
    23:00 -2°C° 0 mm 2 mps 615 mmHg 89%

    Tomorrow, 25 November, Saturday

    Time Temperature Precipitation Wind Pressure Humidity
    00:00 -2°C° 0 mm 2 mps 614 mmHg 89%
    01:00 -2°C° 0 mm 3 mps 614 mmHg 90%
    02:00 -2°C° 0 mm 3 mps 613 mmHg 91%
    03:00 -4°C° 0 mm 3 mps 613 mmHg 91%
    04:00 -4°C° 0 mm 3 mps 612 mmHg 92%
    05:00 -4°C° 0 mm 3 mps 612 mmHg 92%
    06:00 -2°C° 0 mm 3 mps 611 mmHg 92%
    07:00 -2°C° 0 mm 3 mps 611 mmHg 92%
    08:00 -1°C° 0 mm 3 mps 611 mmHg 90%
    09:00 0°C° 0 mm 3 mps 610 mmHg 89%
    10:00 -1°C° 0 mm 4 mps 610 mmHg 88%
    11:00 +1°C° 0.2 mm 3 mps 610 mmHg 89%
    12:00 +1°C° 0.2 mm 3 mps 610 mmHg 90%
    13:00 +2°C° 0.2 mm 2 mps 610 mmHg 91%
    14:00 +2°C° 1.8 mm 2 mps 610 mmHg 93%
    15:00 +1°C° 1.8 mm 2 mps 610 mmHg 94%
    16:00 +1°C° 1.8 mm 2 mps 610 mmHg 96%
    17:00 -1°C° 1.5 mm 2 mps 610 mmHg 96%
    18:00 -2°C° 1.5 mm 2 mps 610 mmHg 96%
    19:00 -2°C° 1.5 mm 3 mps 610 mmHg 95%
    20:00 -4°C° 0.9 mm 3 mps 610 mmHg 95%
    21:00 -4°C° 0.9 mm 3 mps 610 mmHg 95%
    22:00 -5°C° 0.9 mm 3 mps 610 mmHg 95%
    23:00 -5°C° 0.5 mm 3 mps 610 mmHg 95%

    Day after tomorrow, 26 November, Sunday

    Time Temperature Precipitation Wind Pressure Humidity
    00:00 -6°C° 0.5 mm 3 mps 611 mmHg 95%
    01:00 -6°C° 0.5 mm 3 mps 611 mmHg 94%
    02:00 -7°C° 0.4 mm 3 mps 611 mmHg 94%
    03:00 -6°C° 0.4 mm 2 mps 611 mmHg 94%
    04:00 -6°C° 0.4 mm 2 mps 611 mmHg 94%
    05:00 -8°C° 0.8 mm 3 mps 612 mmHg 94%
    06:00 -8°C° 0.8 mm 3 mps 612 mmHg 94%
    07:00 -8°C° 0.8 mm 3 mps 613 mmHg 94%
    08:00 -8°C° 0.7 mm 3 mps 613 mmHg 94%
    09:00 -8°C° 0.7 mm 3 mps 614 mmHg 93%
    10:00 -8°C° 0.7 mm 3 mps 614 mmHg 92%
    11:00 -8°C° 0.5 mm 3 mps 615 mmHg 91%
    12:00 -8°C° 0.5 mm 3 mps 615 mmHg 90%
    13:00 -8°C° 0.5 mm 3 mps 615 mmHg 89%
    14:00 -8°C° 0.3 mm 3 mps 615 mmHg 90%
    15:00 -8°C° 0.3 mm 3 mps 616 mmHg 90%
    16:00 -9°C° 0.3 mm 3 mps 616 mmHg 91%
    17:00 -9°C° 0.2 mm 3 mps 616 mmHg 92%
    18:00 -9°C° 0.2 mm 2 mps 616 mmHg 93%
    19:00 -9°C° 0.2 mm 2 mps 617 mmHg 94%
    20:00 -10°C° 0.1 mm 2 mps 617 mmHg 94%
    21:00 -10°C° 0.1 mm 2 mps 617 mmHg 94%
    22:00 -12°C° 0.1 mm 2 mps 617 mmHg 94%
    23:00 -13°C° 0 mm 2 mps 617 mmHg 94%

    27 November, Monday

    Time Temperature Precipitation Wind Pressure Humidity
    00:00 -13°C° 0 mm 2 mps 617 mmHg 93%
    01:00 -14°C° 0 mm 2 mps 617 mmHg 93%
    02:00 -15°C° 0 mm 2 mps 616 mmHg 93%
    03:00 -15°C° 0 mm 2 mps 616 mmHg 92%
    04:00 -16°C° 0 mm 2 mps 616 mmHg 91%
    05:00 -16°C° 0 mm 2 mps 616 mmHg 91%
    06:00 -16°C° 0 mm 2 mps 616 mmHg 90%
    07:00 -17°C° 0 mm 2 mps 616 mmHg 89%
    08:00 -15°C° 0 mm 2 mps 617 mmHg 87%
    09:00 -13°C° 0 mm 2 mps 618 mmHg 86%
    10:00 -10°C° 0 mm 2 mps 619 mmHg 84%
    11:00 -8°C° 0 mm 1 mps 618 mmHg 81%
    12:00 -7°C° 0 mm 1 mps 618 mmHg 78%
    13:00 -6°C° 0 mm 1 mps 618 mmHg 75%
    14:00 -7°C° 0 mm 1 mps 618 mmHg 79%
    15:00 -8°C° 0 mm 1 mps 617 mmHg 83%
    16:00 -10°C° 0 mm 1 mps 616 mmHg 87%
    17:00 -11°C° 0 mm 1 mps 616 mmHg 86%
    18:00 -12°C° 0 mm 1 mps 616 mmHg 85%
    19:00 -13°C° 0 mm 1 mps 616 mmHg 84%
    20:00 -13°C° 0 mm 1 mps 615 mmHg 80%
    21:00 -13°C° 0 mm 1 mps 615 mmHg 75%
    22:00 -13°C° 0 mm 1 mps 615 mmHg 71%
    23:00 -12°C° 0 mm 1 mps 615 mmHg 69%

    28 November, Tuesday

    Time Temperature Precipitation Wind Pressure Humidity
    00:00 -12°C° 0 mm 1 mps 615 mmHg 66%
    01:00 -12°C° 0 mm 1 mps 615 mmHg 64%
    02:00 -12°C° 0 mm 1 mps 615 mmHg 63%
    03:00 -11°C° 0 mm 1 mps 615 mmHg 62%
    04:00 -11°C° 0 mm 1 mps 614 mmHg 60%
    05:00 -10°C° 0 mm 1 mps 614 mmHg 60%
    06:00 -10°C° 0 mm 1 mps 614 mmHg 61%
    07:00 -10°C° 0 mm 1 mps 614 mmHg 61%
    08:00 -8°C° 0 mm 1 mps 614 mmHg 62%
    09:00 -6°C° 0 mm 1 mps 615 mmHg 63%
    10:00 -3°C° 0 mm 1 mps 616 mmHg 65%
    11:00 -2°C° 0 mm 1 mps 615 mmHg 66%
    12:00 -1°C° 0 mm 1 mps 615 mmHg 67%
    13:00 0°C° 0 mm 1 mps 615 mmHg 69%
    14:00 -1°C° 0 mm 1 mps 614 mmHg 72%
    15:00 -2°C° 0 mm 1 mps 613 mmHg 74%
    16:00 -3°C° 0 mm 1 mps 612 mmHg 77%
    17:00 -6°C° 0 mm 2 mps 612 mmHg 77%
    18:00 -7°C° 0 mm 2 mps 611 mmHg 76%
    19:00 -8°C° 0 mm 2 mps 611 mmHg 76%
    20:00 -9°C° 0 mm 2 mps 611 mmHg 75%
    21:00 -9°C° 0 mm 2 mps 610 mmHg 75%
    22:00 -9°C° 0 mm 2 mps 610 mmHg 75%
    23:00 -9°C° 0 mm 2 mps 610 mmHg 75%

    29 November, Wednesday

    Time Temperature Precipitation Wind Pressure Humidity
    00:00 -9°C° 0 mm 2 mps 610 mmHg 76%
    01:00 -9°C° 0 mm 2 mps 609 mmHg 76%
    02:00 -10°C° 0 mm 2 mps 609 mmHg 78%
    03:00 -10°C° 0 mm 2 mps 608 mmHg 79%
    04:00 -10°C° 0 mm 2 mps 608 mmHg 80%
    05:00 -10°C° 0 mm 2 mps 608 mmHg 81%
    06:00 -10°C° 0 mm 2 mps 608 mmHg 82%
    07:00 -10°C° 0 mm 2 mps 608 mmHg 83%
    08:00 -9°C° 0 mm 2 mps 608 mmHg 82%
    09:00 -7°C° 0 mm 2 mps 609 mmHg 82%
    10:00 -6°C° 0 mm 2 mps 609 mmHg 81%
    11:00 -5°C° 0.1 mm 2 mps 609 mmHg 82%
    12:00 -4°C° 0.1 mm 2 mps 609 mmHg 82%
    13:00 -3°C° 0.1 mm 2 mps 608 mmHg 83%
    14:00 -4°C° 0.2 mm 2 mps 608 mmHg 86%
    15:00 -5°C° 0.2 mm 2 mps 608 mmHg 89%
    16:00 -5°C° 0.2 mm 2 mps 607 mmHg 92%
    17:00 -4°C° 0.6 mm 1 mps 607 mmHg 93%
    18:00 -4°C° 0.6 mm 1 mps 607 mmHg 95%
    19:00 -6°C° 0.6 mm 1 mps 607 mmHg 96%
    20:00 -6°C° 0.6 mm 1 mps 607 mmHg 96%
    21:00 -6°C° 0.6 mm 1 mps 607 mmHg 95%
    22:00 -6°C° 0.6 mm 0 mps 607 mmHg 95%
    23:00 -6°C° 0.7 mm 1 mps 607 mmHg 95%
    Show more